Tracking 29892 objects as of 21-Nov-2024
HD Live streaming from Space Station
objects crossing your sky now

STARLINK-1655

Track STARLINK-1655 now!
10-day predictions
STARLINK-1655 is classified as:


NORAD ID: 47623
Int'l Code: 2021-012D
Perigee: 553.1 km
Apogee: 555.4 km
Inclination: 53.1 °
Period: 95.6 minutes
Semi major axis: 6925 km
RCS: Unknown
Launch date: February 16, 2021
Source: United States (US)
Launch site: AIR FORCE EASTERN TEST RANGE (AFETR)
Your satellite tracking list
Your tracking list is empty




NASA's NSSDC Master Catalog

Two Line Element Set (TLE):
1 47623U 21012D   24325.41117138  .00012530  00000-0  85771-3 0  9992
2 47623  53.0548 335.7360 0001612  85.5953 274.5220 15.06436346209417
Source of the keplerian elements: AFSPC